FENGYUN 1C DEB, 38168

Orbit data source: Space-Track

FENGYUN 1C DEB, 38168 is space debris in SSO originally from a launch on Mon, 10 May 1999 UTC launched from the Taiyaun Space Center, China (TSC). Fengyun 1C debris stems from the Chinese weather satellite Fengyun-1C, which was intentionally destroyed by a Chinese anti-satellite missile in 2007. This event dramatically increased the amount of space debris, with thousands of trackable fragments posing hazards to satellites and human spaceflight. The Fengyun 1C debris cloud has become a focal point in discussions about space sustainability and the need for international regulations to prevent the creation of new debris.

Loading next visibility...
Identifier
38168, 1999-025ERR
Orbit
SSO
Country
Flag of CNCN / PRC
Related business
Manufacturer
Unknown
Mission
Spacecraft
Bus & Motor
Unknown
Mass
Unknown
Launch date (UTC)
1999-05-10 (27 years ago)
Launch vehicle
Unknown
Launch site
Taiyaun Space Center, China (TSC)
Object type
Payload
Rocket body
Debris
Shape & HBR
Unknown shape, 1.1 m
Radar Cross Section
Medium (>0.1 m² and <1 m²)

Expand to show TLE details & history
Last TLE update: 4 days ago

TLE from 4 days ago
0 FENGYUN 1C DEB
1 38168U 99025ERR 26253.09004879  .00002851  00000-0  96968-3 0  9993
2 38168  98.7899 355.8776 0038912  33.9069 326.4593 14.36942783683592
Epoch: 2026-09-10T02:09Z
TLE epoch observation values (Epoch: 2026-09-10T02:09:40.215Z)
Latitude
0.00002°
Longitude
-25.67272°
Altitude
748.402 km
Speed
7.493 km/s
True Right ascension
23h 43m 30s
True Declination
0° 00' 00"
Sunlit
Object was in full shadow at epoch
Visualization orbit readout
Latitude
Unknown
Longitude
Unknown
Altitude
Unknown
Speed
Unknown
Apparent Right ascension
Unknown
Apparent Declination
Unknown
Sunlit
N/A
Visualization observer readout
Local Sidereal Time
16:57:18
Azimuth
Unknown
Elevation
Unknown
Doppler factor
Unknown
Orbital elements
Apogee altitude
793.556 km
Perigee altitude
737.959 km
Semi-major axis
7,143.894 km
Eccentricity
0.00389
Inclination
98.7899°
RAAN
355.8776°
Arg. of periapsis
33.9069°
True anomaly
326.21193°
Mean anomaly
326.4593°
Eccentric anomaly
326.33571°
Mean motion
3.59452 °/min
Orbital period
100.15 mins
BSTAR
0.00096968
Loading maneuver chart data...
Computing Atmospheric mass density...
Loading historical data...
Loading historical data...
Loading historical data...
Loading historical data...
Loading historical data...
Loading historical data...
Loading historical data...

Documentation

Showing up to 5 results
|